Weather History for Vero Beach, FL

Change the Weather History Date:

Sunday, November 25, 2012

  Actual Average Record
Temperature  
Mean Temperature 61 °F 68 °F  
Max Temperature 73 °F 77 °F 87 °F (1983)
Min Temperature 48 °F 60 °F 31 °F (1970)
Degree Days  
Heating Degree Days 4 1  
Month to date heating degree days 35 17  
Since 1 July heating degree days 52 20  
Cooling Degree Days 0 5  
Month to date cooling degree days 63 159  
Year to date cooling degree days 3408 3287  
Growing Degree Days 10 (Base 50)    
Moisture  
Dew Point 51 °F    
Average Humidity 70    
Maximum Humidity 93    
Minimum Humidity 46    
Precipitation  
Precipitation 0.00 in 0.10 in 1.55 in (1993)
Month to date precipitation 0.85 2.79  
Year to date precipitation 46.39 49.19  
Sea Level Pressure  
Sea Level Pressure 30.11 in    
Wind  
Wind Speed 5 mph (NNW)    
Max Wind Speed 13 mph    
Max Gust Speed 15 mph    
Visibility 10 miles    
Events      
T = Trace of Precipitation, MM = Missing Value Source: NWS Daily Summary

Daily Weather History Graph

Daily Weather History Graph

Search for Another Location

Airport:

Trip Planner

Search our weather history database for the weather conditions in past years. The results will help you decide how hot, cold, wet, or windy it might be!

Date:

Astronomy

Nov. 25, 2012 Rise Set
Actual Time 6:50 AM EST 5:26 PM EST
Civil Twilight 6:25 AM EST 5:51 PM EST
Nautical Twilight 5:56 AM EST 6:20 PM EST
Astronomical Twilight 5:28 AM EST 6:48 PM EST
Moon 3:34 PM EST (11/25) 4:13 AM EST (11/25)
Length of Visible Light 11h 26m
Length of Day
10h 35m
Waxing Gibbous, 93% of the Moon is Illuminated
Nov 25
Waxing Gibbous
Nov 28
Full
Dec 6
Last Quarter
Dec 13
New
Dec 20
First Quarter

Hourly Weather History & Observations

Time (EST) Temp. Dew Point Humidity Pressure Visibility Wind Dir Wind Speed Gust Speed Precip Events Conditions
12:53 AM 54.0 °F 52.0 °F 93% 30.07 in 9.0 mi NW 5.8 mph - N/A   Clear
1:53 AM 54.0 °F 51.1 °F 90% 30.07 in 10.0 mi NW 6.9 mph - N/A   Clear
2:53 AM 52.0 °F 48.9 °F 89% 30.07 in 10.0 mi NW 5.8 mph - N/A   Clear
3:53 AM 51.1 °F 48.0 °F 89% 30.07 in 10.0 mi NW 5.8 mph - N/A   Clear
4:53 AM 50.0 °F 46.0 °F 86% 30.07 in 10.0 mi NW 3.5 mph - N/A   Clear
5:53 AM 48.9 °F 45.0 °F 86% 30.08 in 10.0 mi Calm Calm - N/A   Clear
6:53 AM 48.9 °F 45.0 °F 86% 30.09 in 10.0 mi NW 4.6 mph - N/A   Clear
7:53 AM 52.0 °F 46.9 °F 83% 30.12 in 10.0 mi NW 5.8 mph - N/A   Clear
8:53 AM 59.0 °F 50.0 °F 72% 30.14 in 10.0 mi NW 4.6 mph - N/A   Clear
9:53 AM 64.9 °F 51.1 °F 61% 30.15 in 10.0 mi NNW 5.8 mph - N/A   Clear
10:53 AM 69.1 °F 52.0 °F 54% 30.15 in 10.0 mi Variable 4.6 mph - N/A   Clear
11:53 AM 71.1 °F 51.1 °F 49% 30.14 in 10.0 mi North 9.2 mph - N/A   Clear
12:53 PM 73.0 °F 51.1 °F 46% 30.11 in 10.0 mi North 6.9 mph - N/A   Clear
1:53 PM 72.0 °F 52.0 °F 49% 30.09 in 10.0 mi NNE 9.2 mph - N/A   Clear
2:53 PM 71.1 °F 52.0 °F 51% 30.09 in 10.0 mi NNE 9.2 mph - N/A   Clear
3:53 PM 69.1 °F 54.0 °F 58% 30.09 in 10.0 mi NNE 8.1 mph - N/A   Clear
4:53 PM 66.9 °F 54.0 °F 63% 30.10 in 10.0 mi North 5.8 mph - N/A   Clear
5:53 PM 61.0 °F 53.1 °F 75% 30.11 in 10.0 mi NNE 3.5 mph - N/A   Clear
6:53 PM 55.9 °F 52.0 °F 87% 30.12 in 10.0 mi North 4.6 mph - N/A   Clear
7:53 PM 55.0 °F 52.0 °F 89% 30.14 in 10.0 mi North 4.6 mph - N/A   Clear
8:53 PM 55.0 °F 52.0 °F 89% 30.15 in 10.0 mi NNW 3.5 mph - N/A   Clear
9:53 PM 57.0 °F 54.0 °F 89% 30.15 in 9.0 mi Calm Calm - N/A   Partly Cloudy
10:53 PM 57.0 °F 54.0 °F 89% 30.15 in 10.0 mi NNW 4.6 mph - N/A   Clear
11:53 PM 57.0 °F 54.0 °F 89% 30.14 in 10.0 mi Calm Calm - N/A   Clear